Datum;Grugatrasse R�ttenscheid_West;Grugatrasse Ruhr_Ost;Huyssenallee Ruettenscheid_Sued;Huyssenallee Stadtkern_Nord
01.10.2020 00:00;0;0;0;4
01.10.2020 01:00;0;0;1;0
01.10.2020 02:00;0;0;1;0
01.10.2020 03:00;1;0;0;0
01.10.2020 04:00;0;2;0;0
01.10.2020 05:00;22;2;3;9
01.10.2020 06:00;49;19;8;18
01.10.2020 07:00;91;50;19;78
01.10.2020 08:00;96;39;18;73
01.10.2020 09:00;44;30;16;30
01.10.2020 10:00;46;34;8;25
01.10.2020 11:00;34;46;22;27
01.10.2020 12:00;50;43;20;21
01.10.2020 13:00;31;55;25;16
01.10.2020 14:00;42;51;37;25
01.10.2020 15:00;39;57;30;23
01.10.2020 16:00;25;67;36;28
01.10.2020 17:00;29;55;51;24
01.10.2020 18:00;35;45;29;25
01.10.2020 19:00;22;26;13;17
01.10.2020 20:00;13;12;15;17
01.10.2020 21:00;3;2;7;4
01.10.2020 22:00;1;8;8;2
01.10.2020 23:00;3;3;5;1
02.10.2020 00:00;0;1;2;2
02.10.2020 01:00;1;0;0;0
02.10.2020 02:00;0;0;0;0
02.10.2020 03:00;0;0;0;0
02.10.2020 04:00;1;0;1;1
02.10.2020 05:00;18;3;5;8
02.10.2020 06:00;61;20;9;21
02.10.2020 07:00;94;38;18;55
02.10.2020 08:00;87;39;22;60
02.10.2020 09:00;45;27;13;42
02.10.2020 10:00;54;62;25;32
02.10.2020 11:00;53;65;22;24
02.10.2020 12:00;72;77;27;32
02.10.2020 13:00;60;117;41;31
02.10.2020 14:00;87;120;30;36
02.10.2020 15:00;110;120;47;31
02.10.2020 16:00;92;115;42;47
02.10.2020 17:00;83;91;38;44
02.10.2020 18:00;96;73;34;31
02.10.2020 19:00;29;35;13;23
02.10.2020 20:00;8;11;13;13
02.10.2020 21:00;9;8;11;5
02.10.2020 22:00;3;9;13;9
02.10.2020 23:00;4;2;0;6
03.10.2020 00:00;3;5;4;1
03.10.2020 01:00;1;2;0;2
03.10.2020 02:00;0;0;2;3
03.10.2020 03:00;1;0;0;2
03.10.2020 04:00;1;0;1;0
03.10.2020 05:00;2;2;3;1
03.10.2020 06:00;1;0;1;5
03.10.2020 07:00;2;3;2;7
03.10.2020 08:00;16;8;2;7
03.10.2020 09:00;18;20;7;9
03.10.2020 10:00;51;37;4;6
03.10.2020 11:00;62;41;11;11
03.10.2020 12:00;58;47;10;13
03.10.2020 13:00;55;52;13;14
03.10.2020 14:00;32;34;13;10
03.10.2020 15:00;18;23;6;8
03.10.2020 16:00;5;7;2;2
03.10.2020 17:00;21;8;7;10
03.10.2020 18:00;8;5;1;5
03.10.2020 19:00;13;11;11;9
03.10.2020 20:00;5;6;6;8
03.10.2020 21:00;2;8;5;8
03.10.2020 22:00;0;2;6;5
03.10.2020 23:00;1;5;0;3
04.10.2020 00:00;3;0;2;4
04.10.2020 01:00;2;0;1;2
04.10.2020 02:00;3;0;2;1
04.10.2020 03:00;0;1;1;0
04.10.2020 04:00;1;0;1;1
04.10.2020 05:00;1;0;2;1
04.10.2020 06:00;1;0;0;5
04.10.2020 07:00;4;1;0;3
04.10.2020 08:00;4;4;1;2
04.10.2020 09:00;14;18;2;6
04.10.2020 10:00;24;17;1;10
04.10.2020 11:00;39;28;9;13
04.10.2020 12:00;46;30;13;16
04.10.2020 13:00;39;58;7;9
04.10.2020 14:00;65;71;6;22
04.10.2020 15:00;98;73;16;16
04.10.2020 16:00;61;62;9;10
04.10.2020 17:00;63;43;13;17
04.10.2020 18:00;31;22;6;13
04.10.2020 19:00;26;26;5;10
04.10.2020 20:00;10;4;5;3
04.10.2020 21:00;3;3;9;7
04.10.2020 22:00;1;0;1;2
04.10.2020 23:00;0;2;5;2
05.10.2020 00:00;0;1;0;1
05.10.2020 01:00;0;0;1;0
05.10.2020 02:00;1;0;0;0
05.10.2020 03:00;0;0;0;0
05.10.2020 04:00;0;0;0;0
05.10.2020 05:00;17;4;5;6
05.10.2020 06:00;46;19;14;19
05.10.2020 07:00;115;40;20;58
05.10.2020 08:00;85;39;18;69
05.10.2020 09:00;30;15;5;33
05.10.2020 10:00;22;23;6;10
05.10.2020 11:00;51;24;14;14
05.10.2020 12:00;22;42;20;22
05.10.2020 13:00;29;36;18;18
05.10.2020 14:00;50;40;27;19
05.10.2020 15:00;43;70;20;33
05.10.2020 16:00;46;90;39;29
05.10.2020 17:00;50;61;40;24
05.10.2020 18:00;29;44;44;22
05.10.2020 19:00;21;29;12;15
05.10.2020 20:00;18;7;13;9
05.10.2020 21:00;4;2;11;3
05.10.2020 22:00;5;5;7;2
05.10.2020 23:00;1;5;6;1
06.10.2020 00:00;1;1;1;1
06.10.2020 01:00;0;0;0;0
06.10.2020 02:00;0;0;0;0
06.10.2020 03:00;3;0;0;0
06.10.2020 04:00;1;0;0;0
06.10.2020 05:00;15;4;4;5
06.10.2020 06:00;35;12;12;18
06.10.2020 07:00;74;42;13;56
06.10.2020 08:00;65;29;12;51
06.10.2020 09:00;40;25;4;24
06.10.2020 10:00;33;23;9;14
06.10.2020 11:00;22;31;10;17
06.10.2020 12:00;31;27;14;17
06.10.2020 13:00;30;39;18;12
06.10.2020 14:00;39;32;20;19
06.10.2020 15:00;32;57;26;28
06.10.2020 16:00;42;75;30;33
06.10.2020 17:00;59;77;51;40
06.10.2020 18:00;62;56;34;20
06.10.2020 19:00;25;25;27;15
06.10.2020 20:00;2;5;15;4
06.10.2020 21:00;3;5;12;10
06.10.2020 22:00;1;4;3;5
06.10.2020 23:00;2;1;0;2
07.10.2020 00:00;1;1;1;0
07.10.2020 01:00;0;1;1;0
07.10.2020 02:00;0;0;0;0
07.10.2020 03:00;0;0;0;0
07.10.2020 04:00;1;2;0;0
07.10.2020 05:00;13;1;4;7
07.10.2020 06:00;33;13;7;20
07.10.2020 07:00;54;34;11;35
07.10.2020 08:00;47;16;18;44
07.10.2020 09:00;24;19;12;25
07.10.2020 10:00;19;17;7;20
07.10.2020 11:00;23;14;19;15
07.10.2020 12:00;22;21;17;21
07.10.2020 13:00;20;32;19;19
07.10.2020 14:00;23;38;25;9
07.10.2020 15:00;39;43;35;21
07.10.2020 16:00;37;63;23;21
07.10.2020 17:00;50;48;31;30
07.10.2020 18:00;32;33;33;27
07.10.2020 19:00;29;24;22;13
07.10.2020 20:00;7;14;16;12
07.10.2020 21:00;4;5;14;9
07.10.2020 22:00;2;4;16;0
07.10.2020 23:00;1;0;2;2
08.10.2020 00:00;1;1;2;1
08.10.2020 01:00;0;1;0;0
08.10.2020 02:00;0;0;0;0
08.10.2020 03:00;0;0;0;0
08.10.2020 04:00;3;1;0;1
08.10.2020 05:00;20;4;3;12
08.10.2020 06:00;33;12;14;30
08.10.2020 07:00;74;19;22;64
08.10.2020 08:00;67;18;27;69
08.10.2020 09:00;26;23;23;32
08.10.2020 10:00;14;19;17;26
08.10.2020 11:00;18;25;16;25
08.10.2020 12:00;25;26;26;26
08.10.2020 13:00;27;48;29;27
08.10.2020 14:00;23;43;27;30
08.10.2020 15:00;37;49;31;35
08.10.2020 16:00;41;71;54;43
08.10.2020 17:00;38;56;41;42
08.10.2020 18:00;29;44;30;36
08.10.2020 19:00;25;16;29;19
08.10.2020 20:00;10;10;11;13
08.10.2020 21:00;6;8;12;8
08.10.2020 22:00;1;3;11;10
08.10.2020 23:00;1;1;9;6
09.10.2020 00:00;1;1;1;3
09.10.2020 01:00;0;0;0;2
09.10.2020 02:00;0;0;0;1
09.10.2020 03:00;0;0;0;0
09.10.2020 04:00;0;0;0;0
09.10.2020 05:00;19;2;3;5
09.10.2020 06:00;50;21;5;21
09.10.2020 07:00;92;48;14;56
09.10.2020 08:00;68;34;19;64
09.10.2020 09:00;43;37;10;33
09.10.2020 10:00;45;34;11;18
09.10.2020 11:00;48;59;24;24
09.10.2020 12:00;73;64;24;22
09.10.2020 13:00;74;92;42;28
09.10.2020 14:00;78;91;30;33
09.10.2020 15:00;82;91;38;38
09.10.2020 16:00;81;106;41;31
09.10.2020 17:00;68;89;51;34
09.10.2020 18:00;67;59;28;41
09.10.2020 19:00;25;35;30;31
09.10.2020 20:00;10;8;10;11
09.10.2020 21:00;2;8;26;10
09.10.2020 22:00;4;3;6;4
09.10.2020 23:00;3;3;2;0
10.10.2020 00:00;2;4;3;2
10.10.2020 01:00;1;6;0;4
10.10.2020 02:00;1;2;1;0
10.10.2020 03:00;0;0;1;1
10.10.2020 04:00;1;0;0;1
10.10.2020 05:00;2;2;0;1
10.10.2020 06:00;1;2;1;4
10.10.2020 07:00;4;4;2;2
10.10.2020 08:00;14;15;4;8
10.10.2020 09:00;29;42;1;8
10.10.2020 10:00;55;60;7;13
10.10.2020 11:00;83;78;17;19
10.10.2020 12:00;81;77;22;26
10.10.2020 13:00;70;67;21;29
10.10.2020 14:00;46;52;16;27
10.10.2020 15:00;39;34;19;17
10.10.2020 16:00;60;36;17;17
10.10.2020 17:00;21;18;12;7
10.10.2020 18:00;20;10;5;12
10.10.2020 19:00;12;3;4;3
10.10.2020 20:00;6;6;5;9
10.10.2020 21:00;0;4;4;2
10.10.2020 22:00;1;0;8;1
10.10.2020 23:00;0;3;1;1
11.10.2020 00:00;1;1;3;3
11.10.2020 01:00;1;1;0;3
11.10.2020 02:00;1;2;1;0
11.10.2020 03:00;0;0;0;0
11.10.2020 04:00;0;1;0;0
11.10.2020 05:00;3;0;0;3
11.10.2020 06:00;1;1;0;1
11.10.2020 07:00;5;6;0;1
11.10.2020 08:00;17;15;1;4
11.10.2020 09:00;27;18;3;5
11.10.2020 10:00;54;52;10;22
11.10.2020 11:00;62;109;15;15
11.10.2020 12:00;95;101;24;11
11.10.2020 13:00;95;105;11;19
11.10.2020 14:00;105;107;28;19
11.10.2020 15:00;110;49;14;17
11.10.2020 16:00;69;46;10;15
11.10.2020 17:00;35;34;8;8
11.10.2020 18:00;23;14;5;4
11.10.2020 19:00;13;9;9;8
11.10.2020 20:00;4;5;9;5
11.10.2020 21:00;4;4;6;3
11.10.2020 22:00;3;1;3;1
11.10.2020 23:00;2;0;4;0
12.10.2020 00:00;0;0;1;2
12.10.2020 01:00;0;0;0;1
12.10.2020 02:00;0;0;0;0
12.10.2020 03:00;0;0;0;0
12.10.2020 04:00;2;1;0;0
12.10.2020 05:00;13;1;6;5
12.10.2020 06:00;38;14;9;21
12.10.2020 07:00;62;29;14;47
12.10.2020 08:00;62;29;20;46
12.10.2020 09:00;33;19;12;19
12.10.2020 10:00;23;25;7;16
12.10.2020 11:00;24;36;11;17
12.10.2020 12:00;33;41;8;16
12.10.2020 13:00;23;42;19;22
12.10.2020 14:00;32;48;22;14
12.10.2020 15:00;55;75;23;26
12.10.2020 16:00;68;87;34;21
12.10.2020 17:00;71;81;29;31
12.10.2020 18:00;59;59;29;14
12.10.2020 19:00;25;23;18;7
12.10.2020 20:00;11;10;9;11
12.10.2020 21:00;2;7;5;7
12.10.2020 22:00;0;5;5;6
12.10.2020 23:00;0;2;1;2
13.10.2020 00:00;0;0;0;0
13.10.2020 01:00;0;0;0;0
13.10.2020 02:00;0;0;0;0
13.10.2020 03:00;0;0;0;0
13.10.2020 04:00;1;1;0;0
13.10.2020 05:00;20;4;7;6
13.10.2020 06:00;49;16;8;18
13.10.2020 07:00;66;25;11;57
13.10.2020 08:00;78;30;15;64
13.10.2020 09:00;50;41;19;26
13.10.2020 10:00;58;35;10;20
13.10.2020 11:00;62;68;13;28
13.10.2020 12:00;68;69;24;18
13.10.2020 13:00;80;61;14;29
13.10.2020 14:00;94;106;26;37
13.10.2020 15:00;119;127;36;37
13.10.2020 16:00;109;142;49;28
13.10.2020 17:00;94;108;54;39
13.10.2020 18:00;69;74;37;27
13.10.2020 19:00;30;33;20;8
13.10.2020 20:00;14;14;10;5
13.10.2020 21:00;5;4;9;6
13.10.2020 22:00;2;4;6;5
13.10.2020 23:00;1;3;2;3
14.10.2020 00:00;2;0;0;1
14.10.2020 01:00;0;0;0;0
14.10.2020 02:00;0;0;0;0
14.10.2020 03:00;0;0;0;1
14.10.2020 04:00;2;2;0;0
14.10.2020 05:00;19;2;9;4
14.10.2020 06:00;41;13;9;17
14.10.2020 07:00;71;26;21;50
14.10.2020 08:00;51;29;20;73
14.10.2020 09:00;38;28;20;29
14.10.2020 10:00;20;41;9;12
14.10.2020 11:00;31;30;21;15
14.10.2020 12:00;48;56;11;28
14.10.2020 13:00;47;51;20;21
14.10.2020 14:00;45;51;36;31
14.10.2020 15:00;55;82;29;25
14.10.2020 16:00;75;89;49;37
14.10.2020 17:00;52;58;44;38
14.10.2020 18:00;37;58;32;20
14.10.2020 19:00;19;18;21;16
14.10.2020 20:00;8;12;9;6
14.10.2020 21:00;5;3;12;4
14.10.2020 22:00;0;5;9;4
14.10.2020 23:00;2;2;2;4
15.10.2020 00:00;0;0;2;1
15.10.2020 01:00;0;0;1;0
15.10.2020 02:00;0;0;1;1
15.10.2020 03:00;2;2;0;0
15.10.2020 04:00;1;0;1;1
15.10.2020 05:00;15;3;4;5
15.10.2020 06:00;34;13;12;11
15.10.2020 07:00;59;32;20;55
15.10.2020 08:00;59;22;17;48
15.10.2020 09:00;32;27;10;29
15.10.2020 10:00;30;24;9;19
15.10.2020 11:00;31;36;13;26
15.10.2020 12:00;35;34;17;13
15.10.2020 13:00;36;51;22;17
15.10.2020 14:00;30;27;20;23
15.10.2020 15:00;42;58;30;28
15.10.2020 16:00;52;71;43;31
15.10.2020 17:00;59;76;45;28
15.10.2020 18:00;45;56;32;17
15.10.2020 19:00;26;27;18;18
15.10.2020 20:00;12;10;15;10
15.10.2020 21:00;4;3;7;4
15.10.2020 22:00;3;5;7;4
15.10.2020 23:00;4;1;1;2
16.10.2020 00:00;1;0;0;0
16.10.2020 01:00;2;0;2;0
16.10.2020 02:00;0;2;0;1
16.10.2020 03:00;0;0;0;0
16.10.2020 04:00;1;2;0;1
16.10.2020 05:00;11;1;7;6
16.10.2020 06:00;37;13;10;19
16.10.2020 07:00;50;28;12;50
16.10.2020 08:00;50;17;11;48
16.10.2020 09:00;32;32;12;24
16.10.2020 10:00;27;32;13;12
16.10.2020 11:00;34;31;25;28
16.10.2020 12:00;53;57;26;33
16.10.2020 13:00;42;59;34;17
16.10.2020 14:00;70;84;34;20
16.10.2020 15:00;65;89;28;24
16.10.2020 16:00;65;66;27;25
16.10.2020 17:00;43;50;27;21
16.10.2020 18:00;36;30;20;13
16.10.2020 19:00;12;17;14;14
16.10.2020 20:00;13;6;6;9
16.10.2020 21:00;5;7;5;4
16.10.2020 22:00;8;7;0;8
16.10.2020 23:00;2;2;3;3
17.10.2020 00:00;3;1;5;3
17.10.2020 01:00;1;2;0;2
17.10.2020 02:00;0;0;1;0
17.10.2020 03:00;0;0;0;1
17.10.2020 04:00;0;1;1;0
17.10.2020 05:00;1;3;2;3
17.10.2020 06:00;2;2;2;3
17.10.2020 07:00;3;5;3;3
17.10.2020 08:00;8;19;4;5
17.10.2020 09:00;26;37;3;8
17.10.2020 10:00;35;34;7;15
17.10.2020 11:00;71;63;8;10
17.10.2020 12:00;67;92;17;23
17.10.2020 13:00;110;96;25;15
17.10.2020 14:00;89;115;17;20
17.10.2020 15:00;84;77;18;21
17.10.2020 16:00;94;57;28;20
17.10.2020 17:00;72;49;15;15
17.10.2020 18:00;44;22;16;11
17.10.2020 19:00;11;16;12;4
17.10.2020 20:00;8;10;12;4
17.10.2020 21:00;2;3;2;5
17.10.2020 22:00;0;0;2;4
17.10.2020 23:00;4;3;3;4
18.10.2020 00:00;5;2;2;1
18.10.2020 01:00;1;0;0;0
18.10.2020 02:00;0;3;2;2
18.10.2020 03:00;1;1;0;0
18.10.2020 04:00;0;0;1;0
18.10.2020 05:00;2;1;0;2
18.10.2020 06:00;2;3;2;1
18.10.2020 07:00;5;4;2;2
18.10.2020 08:00;6;13;3;2
18.10.2020 09:00;29;36;7;4
18.10.2020 10:00;43;44;6;14
18.10.2020 11:00;70;67;11;16
18.10.2020 12:00;97;94;8;20
18.10.2020 13:00;117;88;11;20
18.10.2020 14:00;100;65;11;20
18.10.2020 15:00;77;69;16;14
18.10.2020 16:00;59;64;20;8
18.10.2020 17:00;60;39;11;7
18.10.2020 18:00;29;19;10;16
18.10.2020 19:00;13;9;3;5
18.10.2020 20:00;12;4;3;3
18.10.2020 21:00;5;4;6;5
18.10.2020 22:00;1;1;3;0
18.10.2020 23:00;1;2;3;1
19.10.2020 00:00;1;0;1;0
19.10.2020 01:00;0;0;0;0
19.10.2020 02:00;0;1;1;0
19.10.2020 03:00;0;0;0;0
19.10.2020 04:00;1;2;0;3
19.10.2020 05:00;17;2;5;10
19.10.2020 06:00;47;14;23;33
19.10.2020 07:00;72;35;29;76
19.10.2020 08:00;74;28;19;82
19.10.2020 09:00;34;35;17;33
19.10.2020 10:00;32;37;26;28
19.10.2020 11:00;61;59;17;31
19.10.2020 12:00;52;52;26;31
19.10.2020 13:00;67;84;33;25
19.10.2020 14:00;97;100;49;46
19.10.2020 15:00;103;123;52;50
19.10.2020 16:00;91;148;54;44
19.10.2020 17:00;100;94;77;53
19.10.2020 18:00;63;63;51;25
19.10.2020 19:00;25;29;21;16
19.10.2020 20:00;10;13;22;14
19.10.2020 21:00;9;2;10;12
19.10.2020 22:00;2;2;8;6
19.10.2020 23:00;0;1;4;4
20.10.2020 00:00;1;0;1;1
20.10.2020 01:00;0;4;0;2
20.10.2020 02:00;0;0;0;1
20.10.2020 03:00;0;0;2;0
20.10.2020 04:00;0;1;0;1
20.10.2020 05:00;21;2;6;6
20.10.2020 06:00;43;16;22;34
20.10.2020 07:00;70;40;25;71
20.10.2020 08:00;64;27;23;70
20.10.2020 09:00;41;42;24;46
20.10.2020 10:00;82;48;23;37
20.10.2020 11:00;50;92;17;40
20.10.2020 12:00;55;51;28;25
20.10.2020 13:00;41;29;26;23
20.10.2020 14:00;37;49;40;34
20.10.2020 15:00;37;57;32;39
20.10.2020 16:00;39;76;57;57
20.10.2020 17:00;32;49;55;37
20.10.2020 18:00;17;34;39;31
20.10.2020 19:00;15;12;24;11
20.10.2020 20:00;8;6;14;12
20.10.2020 21:00;1;9;4;13
20.10.2020 22:00;2;3;9;3
20.10.2020 23:00;2;2;9;1
21.10.2020 00:00;0;0;5;0
21.10.2020 01:00;0;0;0;0
21.10.2020 02:00;0;0;0;1
21.10.2020 03:00;0;1;0;1
21.10.2020 04:00;0;0;0;0
21.10.2020 05:00;10;1;5;3
21.10.2020 06:00;34;10;9;12
21.10.2020 07:00;42;22;11;44
21.10.2020 08:00;43;12;11;47
21.10.2020 09:00;10;12;9;8
21.10.2020 10:00;13;13;7;11
21.10.2020 11:00;6;11;8;11
21.10.2020 12:00;21;23;14;20
21.10.2020 13:00;26;20;15;21
21.10.2020 14:00;25;38;16;18
21.10.2020 15:00;53;95;25;27
21.10.2020 16:00;79;135;38;29
21.10.2020 17:00;95;81;48;34
21.10.2020 18:00;92;55;38;29
21.10.2020 19:00;30;20;12;22
21.10.2020 20:00;12;14;11;11
21.10.2020 21:00;4;8;8;4
21.10.2020 22:00;8;7;8;3
21.10.2020 23:00;4;2;6;2
22.10.2020 00:00;2;0;1;2
22.10.2020 01:00;0;0;0;0
22.10.2020 02:00;0;0;0;0
22.10.2020 03:00;0;1;0;0
22.10.2020 04:00;0;0;0;1
22.10.2020 05:00;14;4;3;4
22.10.2020 06:00;39;18;9;23
22.10.2020 07:00;64;24;18;47
22.10.2020 08:00;61;26;9;59
22.10.2020 09:00;33;41;18;22
22.10.2020 10:00;43;55;7;14
22.10.2020 11:00;73;48;12;22
22.10.2020 12:00;61;74;16;28
22.10.2020 13:00;54;50;18;13
22.10.2020 14:00;43;61;20;17
22.10.2020 15:00;69;60;25;30
22.10.2020 16:00;70;97;23;22
22.10.2020 17:00;80;77;39;29
22.10.2020 18:00;35;50;34;22
22.10.2020 19:00;27;26;16;11
22.10.2020 20:00;3;8;12;13
22.10.2020 21:00;4;5;3;8
22.10.2020 22:00;2;4;6;4
22.10.2020 23:00;1;4;2;1
23.10.2020 00:00;0;1;0;1
23.10.2020 01:00;1;0;0;1
23.10.2020 02:00;0;0;1;1
23.10.2020 03:00;0;1;0;1
23.10.2020 04:00;0;0;0;0
23.10.2020 05:00;11;2;3;5
23.10.2020 06:00;38;18;10;15
23.10.2020 07:00;54;26;15;44
23.10.2020 08:00;48;23;12;36
23.10.2020 09:00;25;25;12;15
23.10.2020 10:00;17;12;7;10
23.10.2020 11:00;15;16;7;17
23.10.2020 12:00;21;28;15;11
23.10.2020 13:00;22;16;17;12
23.10.2020 14:00;24;38;25;17
23.10.2020 15:00;47;61;27;20
23.10.2020 16:00;43;57;22;36
23.10.2020 17:00;43;65;31;27
23.10.2020 18:00;39;57;19;25
23.10.2020 19:00;21;23;15;17
23.10.2020 20:00;7;14;8;6
23.10.2020 21:00;1;5;10;9
23.10.2020 22:00;4;3;10;5
23.10.2020 23:00;4;5;4;2
24.10.2020 00:00;6;1;2;1
24.10.2020 01:00;6;2;0;3
24.10.2020 02:00;0;0;0;0
24.10.2020 03:00;2;0;0;1
24.10.2020 04:00;1;1;0;1
24.10.2020 05:00;3;0;1;2
24.10.2020 06:00;2;0;1;7
24.10.2020 07:00;5;0;2;1
24.10.2020 08:00;15;7;2;6
24.10.2020 09:00;27;37;4;16
24.10.2020 10:00;51;51;3;19
24.10.2020 11:00;81;99;17;30
24.10.2020 12:00;109;81;15;23
24.10.2020 13:00;91;110;25;23
24.10.2020 14:00;103;113;11;22
24.10.2020 15:00;117;87;24;16
24.10.2020 16:00;98;64;13;22
24.10.2020 17:00;67;41;11;16
24.10.2020 18:00;35;30;12;10
24.10.2020 19:00;13;11;10;7
24.10.2020 20:00;3;5;7;7
24.10.2020 21:00;8;5;4;5
24.10.2020 22:00;4;2;2;7
24.10.2020 23:00;6;3;3;7
25.10.2020 00:00;7;4;3;3
25.10.2020 01:00;3;1;1;0
25.10.2020 02:00;3;4;0;0
25.10.2020 03:00;0;0;1;2
25.10.2020 04:00;0;0;0;0
25.10.2020 05:00;3;1;1;1
25.10.2020 06:00;6;1;0;1
25.10.2020 07:00;8;12;2;2
25.10.2020 08:00;10;19;4;1
25.10.2020 09:00;17;12;3;9
25.10.2020 10:00;22;16;4;4
25.10.2020 11:00;29;14;4;4
25.10.2020 12:00;27;14;6;9
25.10.2020 13:00;13;11;4;8
25.10.2020 14:00;15;11;3;6
25.10.2020 15:00;13;8;5;2
25.10.2020 16:00;11;13;2;6
25.10.2020 17:00;11;9;5;3
25.10.2020 18:00;6;1;5;1
25.10.2020 19:00;7;4;7;5
25.10.2020 20:00;5;1;2;3
25.10.2020 21:00;1;2;4;5
25.10.2020 22:00;0;1;1;2
25.10.2020 23:00;0;1;3;0
26.10.2020 00:00;0;0;0;1
26.10.2020 01:00;0;1;0;0
26.10.2020 02:00;0;1;0;0
26.10.2020 03:00;0;0;0;0
26.10.2020 04:00;0;0;0;0
26.10.2020 05:00;17;1;3;6
26.10.2020 06:00;72;17;11;26
26.10.2020 07:00;111;54;18;79
26.10.2020 08:00;78;30;16;61
26.10.2020 09:00;45;37;15;38
26.10.2020 10:00;30;38;5;18
26.10.2020 11:00;47;67;11;26
26.10.2020 12:00;53;67;18;28
26.10.2020 13:00;53;73;20;12
26.10.2020 14:00;57;59;34;17
26.10.2020 15:00;87;74;32;37
26.10.2020 16:00;65;107;38;36
26.10.2020 17:00;63;82;47;37
26.10.2020 18:00;30;48;37;19
26.10.2020 19:00;12;23;20;9
26.10.2020 20:00;9;7;15;11
26.10.2020 21:00;5;7;3;3
26.10.2020 22:00;0;1;1;2
26.10.2020 23:00;0;1;2;1
27.10.2020 00:00;0;0;2;1
27.10.2020 01:00;0;0;0;0
27.10.2020 02:00;0;0;0;0
27.10.2020 03:00;0;1;0;0
27.10.2020 04:00;0;1;1;0
27.10.2020 05:00;14;2;2;9
27.10.2020 06:00;64;26;13;25
27.10.2020 07:00;110;46;16;76
27.10.2020 08:00;85;46;24;62
27.10.2020 09:00;55;40;4;28
27.10.2020 10:00;48;47;8;20
27.10.2020 11:00;72;56;18;25
27.10.2020 12:00;69;57;20;21
27.10.2020 13:00;69;62;28;16
27.10.2020 14:00;59;62;26;20
27.10.2020 15:00;45;81;31;25
27.10.2020 16:00;67;107;44;34
27.10.2020 17:00;67;102;40;30
27.10.2020 18:00;41;55;40;24
27.10.2020 19:00;24;20;25;9
27.10.2020 20:00;5;13;7;6
27.10.2020 21:00;4;8;11;11
27.10.2020 22:00;0;5;6;3
27.10.2020 23:00;2;4;2;2
28.10.2020 00:00;3;0;0;0
28.10.2020 01:00;0;0;1;0
28.10.2020 02:00;0;0;0;0
28.10.2020 03:00;0;1;0;0
28.10.2020 04:00;2;0;1;0
28.10.2020 05:00;24;4;3;7
28.10.2020 06:00;55;18;12;23
28.10.2020 07:00;109;47;18;65
28.10.2020 08:00;67;24;20;68
28.10.2020 09:00;39;29;10;47
28.10.2020 10:00;71;43;14;23
28.10.2020 11:00;60;57;20;26
28.10.2020 12:00;55;61;18;30
28.10.2020 13:00;95;64;24;22
28.10.2020 14:00;62;52;36;23
28.10.2020 15:00;72;86;37;23
28.10.2020 16:00;53;105;46;29
28.10.2020 17:00;50;75;36;28
28.10.2020 18:00;31;41;33;19
28.10.2020 19:00;11;12;14;10
28.10.2020 20:00;6;9;10;7
28.10.2020 21:00;5;8;5;3
28.10.2020 22:00;1;2;4;2
28.10.2020 23:00;2;2;3;0
29.10.2020 00:00;0;0;0;0
29.10.2020 01:00;0;1;1;0
29.10.2020 02:00;0;0;0;1
29.10.2020 03:00;0;1;0;0
29.10.2020 04:00;1;0;1;0
29.10.2020 05:00;14;2;1;5
29.10.2020 06:00;48;14;12;18
29.10.2020 07:00;84;44;21;66
29.10.2020 08:00;71;27;18;42
29.10.2020 09:00;29;52;10;37
29.10.2020 10:00;35;39;12;25
29.10.2020 11:00;58;49;22;25
29.10.2020 12:00;47;55;16;24
29.10.2020 13:00;70;62;26;35
29.10.2020 14:00;43;47;30;18
29.10.2020 15:00;43;57;33;18
29.10.2020 16:00;34;49;35;20
29.10.2020 17:00;32;45;36;19
29.10.2020 18:00;15;24;19;17
29.10.2020 19:00;7;12;12;9
29.10.2020 20:00;6;7;13;8
29.10.2020 21:00;3;4;1;4
29.10.2020 22:00;2;0;0;1
29.10.2020 23:00;0;1;2;1
30.10.2020 00:00;0;0;0;0
30.10.2020 01:00;0;0;0;1
30.10.2020 02:00;0;0;1;1
30.10.2020 03:00;0;0;0;0
30.10.2020 04:00;0;0;1;0
30.10.2020 05:00;15;2;3;5
30.10.2020 06:00;39;13;5;7
30.10.2020 07:00;71;33;9;51
30.10.2020 08:00;51;26;16;43
30.10.2020 09:00;19;13;5;20
30.10.2020 10:00;15;15;7;15
30.10.2020 11:00;17;13;4;11
30.10.2020 12:00;24;16;12;17
30.10.2020 13:00;30;41;22;23
30.10.2020 14:00;36;50;17;24
30.10.2020 15:00;46;62;21;25
30.10.2020 16:00;43;65;29;24
30.10.2020 17:00;38;41;24;21
30.10.2020 18:00;19;31;11;19
30.10.2020 19:00;16;10;9;12
30.10.2020 20:00;8;8;6;9
30.10.2020 21:00;2;4;8;12
30.10.2020 22:00;3;4;8;2
30.10.2020 23:00;0;3;8;4
31.10.2020 00:00;0;0;1;2
31.10.2020 01:00;2;4;0;0
31.10.2020 02:00;1;0;1;1
31.10.2020 03:00;0;0;0;0
31.10.2020 04:00;0;0;1;1
31.10.2020 05:00;4;4;2;1
31.10.2020 06:00;3;4;2;2
31.10.2020 07:00;7;10;0;4
31.10.2020 08:00;13;21;1;7
31.10.2020 09:00;42;53;6;14
31.10.2020 10:00;100;99;4;17
31.10.2020 11:00;185;159;15;35
31.10.2020 12:00;183;234;19;42
31.10.2020 13:00;198;230;13;32
31.10.2020 14:00;227;241;18;42
31.10.2020 15:00;253;222;27;22
31.10.2020 16:00;212;101;17;30
31.10.2020 17:00;127;45;20;20
31.10.2020 18:00;44;12;4;13
31.10.2020 19:00;11;8;12;9
31.10.2020 20:00;2;3;4;6
31.10.2020 21:00;1;6;3;1
31.10.2020 22:00;4;0;4;2
31.10.2020 23:00;0;2;3;2
01.11.2020 00:00;5;2;0;0
01.11.2020 01:00;0;4;0;5
01.11.2020 02:00;0;0;0;2
01.11.2020 03:00;0;0;0;1
01.11.2020 04:00;5;0;0;0
01.11.2020 05:00;2;0;0;1
01.11.2020 06:00;3;1;0;1
01.11.2020 07:00;4;2;0;1
01.11.2020 08:00;11;8;0;4
01.11.2020 09:00;37;46;3;8
01.11.2020 10:00;46;68;2;11
01.11.2020 11:00;85;84;6;13
01.11.2020 12:00;96;69;7;14
01.11.2020 13:00;77;46;6;12
01.11.2020 14:00;42;25;2;16
01.11.2020 15:00;17;28;5;7
01.11.2020 16:00;16;16;2;7
01.11.2020 17:00;17;15;6;7
01.11.2020 18:00;16;8;3;4
01.11.2020 19:00;8;1;3;7
01.11.2020 20:00;2;3;0;1
01.11.2020 21:00;3;4;0;3
01.11.2020 22:00;1;2;0;2
01.11.2020 23:00;2;0;2;2
02.11.2020 00:00;1;0;0;0
02.11.2020 01:00;0;0;0;0
02.11.2020 02:00;0;0;0;0
02.11.2020 03:00;1;0;0;1
02.11.2020 04:00;1;0;0;0
02.11.2020 05:00;16;2;3;9
02.11.2020 06:00;66;21;8;21
02.11.2020 07:00;96;56;16;77
02.11.2020 08:00;70;32;9;66
02.11.2020 09:00;43;25;9;23
02.11.2020 10:00;31;24;8;13
02.11.2020 11:00;41;49;14;15
02.11.2020 12:00;58;63;14;21
02.11.2020 13:00;53;72;19;19
02.11.2020 14:00;43;65;14;24
02.11.2020 15:00;70;76;20;31
02.11.2020 16:00;66;114;32;32
02.11.2020 17:00;55;47;25;26
02.11.2020 18:00;16;30;20;14
02.11.2020 19:00;7;13;9;8
02.11.2020 20:00;9;4;3;5
02.11.2020 21:00;5;4;2;1
02.11.2020 22:00;4;1;1;0
02.11.2020 23:00;0;0;0;1
03.11.2020 00:00;0;1;0;0
03.11.2020 01:00;0;0;0;0
03.11.2020 02:00;0;0;0;0
03.11.2020 03:00;0;1;0;0
03.11.2020 04:00;2;0;0;0
03.11.2020 05:00;18;5;3;9
03.11.2020 06:00;75;18;8;25
03.11.2020 07:00;113;64;10;79
03.11.2020 08:00;92;37;8;80
03.11.2020 09:00;61;46;8;44
03.11.2020 10:00;56;79;4;15
03.11.2020 11:00;69;67;9;29
03.11.2020 12:00;103;89;21;30
03.11.2020 13:00;91;91;31;19
03.11.2020 14:00;88;105;24;26
03.11.2020 15:00;103;130;31;33
03.11.2020 16:00;85;138;39;36
03.11.2020 17:00;70;86;27;34
03.11.2020 18:00;46;53;26;22
03.11.2020 19:00;19;22;14;12
03.11.2020 20:00;14;11;3;10
03.11.2020 21:00;4;10;1;1
03.11.2020 22:00;5;1;2;0
03.11.2020 23:00;2;1;0;0
04.11.2020 00:00;0;1;0;1
04.11.2020 01:00;0;0;0;0
04.11.2020 02:00;0;0;0;0
04.11.2020 03:00;0;0;0;0
04.11.2020 04:00;1;2;0;2
04.11.2020 05:00;17;3;2;8
04.11.2020 06:00;66;19;7;18
04.11.2020 07:00;104;62;15;81
04.11.2020 08:00;80;35;12;65
04.11.2020 09:00;50;36;13;35
04.11.2020 10:00;52;63;14;23
04.11.2020 11:00;67;80;15;38
04.11.2020 12:00;77;97;13;20
04.11.2020 13:00;98;93;18;21
04.11.2020 14:00;107;104;28;19
04.11.2020 15:00;120;139;20;30
04.11.2020 16:00;88;125;34;30
04.11.2020 17:00;71;90;34;30
04.11.2020 18:00;34;50;20;17
04.11.2020 19:00;17;21;7;8
04.11.2020 20:00;10;7;6;9
04.11.2020 21:00;8;5;2;3
04.11.2020 22:00;2;4;1;2
04.11.2020 23:00;0;0;0;1
05.11.2020 00:00;0;0;1;1
05.11.2020 01:00;0;0;0;0
05.11.2020 02:00;0;0;1;0
05.11.2020 03:00;0;0;0;0
05.11.2020 04:00;1;1;0;0
05.11.2020 05:00;16;4;2;5
05.11.2020 06:00;48;15;8;13